AK4NG Weather Reports


time (UTC)temp
F
wind
direction
speed
knots
gust
knots
rain 1hr
in
rain 24hr
in
rain mn
in
humidity
%
barometer
mb
20260504185912 79 242 2.6 2.6 0.00 0.00 0.00 34 1017.0
20260504185409 78 79 0.9 1.7 0.00 0.00 0.00 37 1016.9
20260504184905 78 102 3.5 5.2 0.00 0.00 0.00 34 1016.9
20260504184401 78 16 0.9 0.9 0.00 0.00 0.00 35 1016.9
20260504183857 78 38 0.9 0.9 0.00 0.00 0.00 33 1017.2
20260504183354 78 307 3.5 3.5 0.00 0.00 0.00 30 1017.4
20260504182852 78 325 4.3 6.1 0.00 0.00 0.00 34 1017.1
20260504182349 78 170 1.7 1.7 0.00 0.00 0.00 34 1017.1
20260504181845 78 55 3.5 3.5 0.00 0.00 0.00 31 1017.0
20260504181343 78 147 0.9 0.9 0.00 0.00 0.00 32 1017.3
20260504180842 78 135 1.7 2.6 0.00 0.00 0.00 34 1017.3
20260504180340 78 284 0.0 0.9 0.00 0.00 0.00 31 1017.5
20260504175838 77 150 0.9 0.9 0.00 0.00 0.00 34 1017.3
20260504175334 77 246 1.7 1.7 0.00 0.00 0.00 33 1017.3
20260504174833 76 116 2.6 3.5 0.00 0.00 0.00 34 1017.5
20260504174330 77 124 2.6 3.5 0.00 0.00 0.00 33 1017.6
20260504173827 77 136 3.5 5.2 0.00 0.00 0.00 33 1017.7
20260504173323 77 200 1.7 1.7 0.00 0.00 0.00 33 1017.7
20260504172820 77 99 1.7 1.7 0.00 0.00 0.00 33 1017.9
20260504172317 77 267 2.6 3.5 0.00 0.00 0.00 35 1018.1
20260504171813 77 157 3.5 5.2 0.00 0.00 0.00 35 1017.9
20260504171310 77 28 2.6 2.6 0.00 0.00 0.00 35 1018.1
20260504170807 76 14 3.5 5.2 0.00 0.00 0.00 36 1018.1
20260504170304 77 170 1.7 2.6 0.00 0.00 0.00 36 1017.9
20260504160222 73 292 1.7 2.6 0.00 0.00 0.00 39 1018.7
20260504150647 72 137 2.6 2.6 0.00 0.00 0.00 43 1019.0
20260504150144 72 126 4.3 5.2 0.00 0.00 0.00 46 1018.9
20260504141113 69 222 1.7 1.7 0.00 0.00 0.00 51 1019.0
20260504140610 69 264 1.7 1.7 0.00 0.00 0.00 52 1019.4
20260504140105 68 96 0.9 1.7 0.00 0.00 0.00 53 1019.3
20260504130534 63 149 1.7 1.7 0.00 0.00 0.00 57 1019.0
20260504110421 49 107 0.9 0.9 0.00 0.00 0.00 84 1018.3
20260504100338 50 86 0.0 0.9 0.00 0.00 0.00 86 1018.3
20260504081731 48 270 0.0 0.0 0.00 0.00 0.00 90 1018.5
20260504081228 48 270 0.0 0.0 0.00 0.00 0.00 90 1018.4
20260504080724 48 270 0.0 0.0 0.00 0.00 0.00 89 1018.6
20260504080221 48 270 0.0 0.0 0.00 0.00 0.00 89 1018.7
20260504070148 50 270 0.0 0.0 0.00 0.00 0.00 83 1018.9
20260504060109 50 271 0.0 0.0 0.00 0.00 0.00 84 1019.4
20260504050537 52 270 0.0 0.0 0.00 0.00 0.00 77 1019.5
20260504045531 53 270 0.0 0.0 0.00 0.00 0.00 78 1020.0
20260504045026 53 270 0.0 0.0 0.00 0.00 0.00 80 1020.0
20260504044524 53 270 0.0 0.0 0.00 0.00 0.00 81 1020.0
20260504044021 53 270 0.0 0.0 0.00 0.00 0.00 79 1019.9
20260504043518 53 271 0.0 0.0 0.00 0.00 0.00 82 1019.8
20260504043015 53 271 0.0 0.0 0.00 0.00 0.00 80 1020.0
20260504042512 53 271 0.0 0.0 0.00 0.00 0.00 79 1020.1
20260504042009 54 271 0.0 0.0 0.00 0.00 0.00 79 1020.1
20260504041505 54 271 0.0 0.0 0.00 0.00 0.00 78 1020.1
20260504041001 54 271 0.0 0.0 0.00 0.00 0.00 80 1020.3
20260504040459 54 271 0.0 0.0 0.00 0.00 0.00 79 1020.0
20260504035954 54 271 0.0 0.0 0.00 0.00 0.00 79 1020.0
20260504035452 54 271 0.0 0.0 0.00 0.00 0.00 79 1020.0
20260504034948 54 271 0.0 0.0 0.00 0.00 0.00 79 1019.9
20260504034446 54 270 0.0 0.0 0.00 0.00 0.00 76 1019.7
20260504033943 54 270 0.0 0.0 0.00 0.00 0.00 76 1019.9
20260504033441 54 271 0.0 0.0 0.00 0.00 0.00 77 1020.0
20260504032938 54 271 0.0 0.0 0.00 0.00 0.00 78 1019.9
20260504032434 55 271 0.0 0.0 0.00 0.00 0.00 78 1019.9
20260504031931 54 271 0.0 0.0 0.00 0.00 0.00 78 1019.9
20260504031428 54 271 0.0 0.0 0.00 0.00 0.00 77 1020.0
20260504030925 54 271 0.0 0.0 0.00 0.00 0.00 78 1019.8
20260504030422 55 271 0.0 0.0 0.00 0.00 0.00 77 1019.5
20260504025918 55 271 0.0 0.0 0.00 0.00 0.00 77 1019.7
20260504025415 55 271 0.0 0.0 0.00 0.00 0.00 76 1019.7
20260504024912 55 271 0.0 0.0 0.00 0.00 0.00 72 1019.6
20260504024409 55 271 0.0 0.0 0.00 0.00 0.00 68 1019.7
20260504023906 55 271 0.0 0.0 0.00 0.00 0.00 71 1019.8
20260504023402 55 271 0.0 0.0 0.00 0.00 0.00 72 1019.8
20260504022857 55 270 0.0 0.0 0.00 0.00 0.00 72 1019.7
20260504022355 55 270 0.0 0.0 0.00 0.00 0.00 77 1019.6
20260504021851 55 270 0.0 0.0 0.00 0.00 0.00 73 1019.7
20260504021348 55 270 0.0 0.0 0.00 0.00 0.00 73 1019.4
20260504020846 56 270 0.0 0.0 0.00 0.00 0.00 68 1019.4
20260504020342 56 270 0.0 0.0 0.00 0.00 0.00 71 1019.4
20260504015838 56 270 0.0 0.0 0.00 0.00 0.00 75 1019.3
20260504015335 56 270 0.0 0.0 0.00 0.00 0.00 75 1019.5
20260504014831 57 270 0.0 0.0 0.00 0.00 0.00 73 1019.4
20260504014327 57 270 0.0 0.0 0.00 0.00 0.00 73 1019.1
20260504013825 57 270 0.0 0.0 0.00 0.00 0.00 73 1019.2
20260504013322 58 270 0.0 0.0 0.00 0.00 0.00 71 1019.3
20260504012819 58 270 0.0 0.0 0.00 0.00 0.00 71 1019.1
20260504012317 58 270 0.0 0.0 0.00 0.00 0.00 66 1019.0
20260504011814 58 270 0.0 0.0 0.00 0.00 0.00 67 1018.9
20260504011310 58 270 0.0 0.0 0.00 0.00 0.00 68 1019.1
20260504010806 59 270 0.0 0.0 0.00 0.00 0.00 68 1019.0
20260504010302 59 270 0.0 0.0 0.00 0.00 0.00 66 1018.9
20260504005759 59 270 0.0 0.0 0.00 0.00 0.00 68 1018.9
20260504005256 59 270 0.0 0.0 0.00 0.00 0.00 69 1018.9
20260504004753 60 270 0.0 0.0 0.00 0.00 0.00 65 1018.7
20260504004251 60 270 0.0 0.0 0.00 0.00 0.00 64 1018.9
20260504003747 61 270 0.0 0.0 0.00 0.00 0.00 65 1018.6
20260504003244 61 270 0.0 0.0 0.00 0.00 0.00 61 1018.4
20260504002740 62 270 0.0 0.0 0.00 0.00 0.00 60 1018.6
20260504002237 62 270 0.0 0.0 0.00 0.00 0.00 56 1018.3
20260504001735 63 270 0.0 0.0 0.00 0.00 0.00 55 1018.3
20260504001232 64 270 0.0 0.0 0.00 0.00 0.00 53 1018.1
20260504000728 65 270 0.0 0.0 0.00 0.00 0.00 51 1018.4
20260504000226 67 270 0.0 0.0 0.00 0.00 0.00 47 1018.2
20260503235724 68 271 0.0 0.0 0.00 0.00 0.00 43 1018.3
20260503235221 69 271 0.0 0.0 0.00 0.00 0.00 43 1018.3
20260503234719 70 271 0.0 0.0 0.00 0.00 0.00 42 1018.6
20260503234216 71 271 0.0 0.0 0.00 0.00 0.00 38 1018.4
20260503233713 71 270 0.9 0.9 0.00 0.00 0.00 37 1018.1
20260503233209 71 342 0.0 0.0 0.00 0.00 0.00 38 1018.5
20260503232706 71 273 0.9 0.9 0.00 0.00 0.00 35 1018.5
20260503232203 71 287 1.7 2.6 0.00 0.00 0.00 35 1018.4
20260503231701 71 296 3.5 3.5 0.00 0.00 0.00 34 1018.3
20260503231157 72 330 3.5 3.5 0.00 0.00 0.00 32 1018.5
20260503230654 72 246 2.6 2.6 0.00 0.00 0.00 32 1018.6
20260503230151 72 255 2.6 2.6 0.00 0.00 0.00 33 1018.5
20260503225648 73 290 3.5 3.5 0.00 0.00 0.00 32 1018.6
20260503225148 73 12 2.6 2.6 0.00 0.00 0.00 35 1018.5
20260503224646 73 324 0.0 0.0 0.00 0.00 0.00 34 1018.4
20260503224144 74 277 3.5 3.5 0.00 0.00 0.00 32 1018.5
20260503223641 74 260 2.6 2.6 0.00 0.00 0.00 31 1018.4
20260503223138 73 304 0.9 0.9 0.00 0.00 0.00 30 1018.3
20260503222635 73 7 2.6 3.5 0.00 0.00 0.00 35 1018.5
20260503222132 73 26 2.6 2.6 0.00 0.00 0.00 32 1018.6
20260503221631 73 319 1.7 1.7 0.00 0.00 0.00 34 1018.6
20260503221128 73 288 1.7 3.5 0.00 0.00 0.00 34 1018.7
20260503220624 74 289 3.5 3.5 0.00 0.00 0.00 29 1018.6
20260503220121 73 38 3.5 3.5 0.00 0.00 0.00 31 1018.5
20260503215618 74 256 1.7 2.6 0.00 0.00 0.00 32 1018.8
20260503215115 74 252 0.9 1.7 0.00 0.00 0.00 31 1018.5
20260503214614 73 46 1.7 2.6 0.00 0.00 0.00 34 1018.7
20260503214109 74 198 5.2 7.0 0.00 0.00 0.00 30 1018.7
20260503213608 73 344 1.7 1.7 0.00 0.00 0.00 33 1018.7
20260503213104 73 258 0.0 0.9 0.00 0.00 0.00 32 1018.8
20260503212601 73 309 5.2 7.0 0.00 0.00 0.00 29 1018.8
20260503212059 74 280 6.1 7.0 0.00 0.00 0.00 30 1018.8
20260503211556 75 285 2.6 3.5 0.00 0.00 0.00 30 1018.7
20260503211051 74 284 1.7 1.7 0.00 0.00 0.00 31 1018.9
20260503210548 74 281 3.5 3.5 0.00 0.00 0.00 31 1019.0
20260503210044 73 208 1.7 1.7 0.00 0.00 0.00 31 1018.9
20260503205541 73 237 3.5 3.5 0.00 0.00 0.00 31 1018.9
20260503205037 74 232 4.3 6.1 0.00 0.00 0.00 30 1019.1
20260503204534 74 25 2.6 2.6 0.00 0.00 0.00 32 1019.0
20260503204031 73 292 0.9 0.9 0.00 0.00 0.00 30 1019.2
20260503203529 74 243 4.3 5.2 0.00 0.00 0.00 29 1019.5
20260503203026 73 40 1.7 1.7 0.00 0.00 0.00 31 1019.6
20260503202523 73 272 5.2 6.1 0.00 0.00 0.00 30 1019.7
20260503202021 74 300 5.2 7.0 0.00 0.00 0.00 31 1019.8
20260503201519 74 252 5.2 7.0 0.00 0.00 0.00 30 1019.7
20260503201016 74 334 2.6 2.6 0.00 0.00 0.00 31 1019.8
20260503200512 74 267 1.7 2.6 0.00 0.00 0.00 32 1019.7
20260503200009 73 62 0.9 0.9 0.00 0.00 0.00 31 1020.0
20260503195506 74 52 1.7 2.6 0.00 0.00 0.00 33 1020.1
20260503195003 74 251 3.5 3.5 0.00 0.00 0.00 32 1020.2
20260503194500 73 320 0.9 0.9 0.00 0.00 0.00 36 1020.2
20260503193955 73 301 0.0 0.9 0.00 0.00 0.00 33 1020.3
20260503193451 73 277 1.7 1.7 0.00 0.00 0.00 34 1020.4
20260503192947 73 278 3.5 6.1 0.00 0.00 0.00 33 1020.3
20260503192443 73 274 5.2 6.1 0.00 0.00 0.00 35 1020.4
20260503191939 72 297 2.6 3.5 0.00 0.00 0.00 32 1020.5
20260503191437 73 246 7.0 8.7 0.00 0.00 0.00 31 1020.5
20260503190932 73 305 1.7 2.6 0.00 0.00 0.00 36 1020.7
20260503190430 73 280 3.5 5.2 0.00 0.00 0.00 34 1020.8